sat.trackr.live / text

‹ back to catalog

STARLINK-35702

NORAD 66876 · 2025-281AE

PAYLOAD ACTIVE UNKNOWN

§ Identity

Operator
Country
US
Launch date
2025-12-02
Launch site
AFETR
Launch vehicle
Mass (kg)
RCS (m²)

Purposes: comms

External: N2YO · Heavens-Above · Gunter

§ Orbital elements

Epoch: 2026-05-25T01:06:00.606240Z

Period
94.27 min
Inclination
42.9950°
Eccentricity
0.0000334
Mean motion
15.27587597 rev/d
Perigee alt
482.8 km
Apogee alt
483.3 km
Semi-major
6,861.2 km
B*
3.0253e-4
RAAN
272.2124°
Arg perigee
29.0887°
Mean anomaly
330.9983°
Rev number
2,785

§ Raw data

STARLINK-357021 66876U 25281AE  26145.04584035  .00008074  00000+0  30253-3 0  99922 66876  42.9950 272.2124 0000334  29.0887 330.9983 15.27587597 27851

JSON: /api/v1/satellites/66876 · /tle

For live sub-satellite position, see the globe view (requires WebGL).

§ Visibility from observer

Set your observer location to see the next 7 days of passes ≥ 10°. The values pass through the URL so the page stays shareable.

No JS? Fill the form by hand. The geolocation button needs JavaScript.